• In Deutschland
  • Länderverzeichnis
  • Für 7 Tage
  • Wassertemperatur
  • Satellitenkarten
  • Wetterkarte
  • Widgets
  • user-avatar
    Anmelden

    Stündliche Wetter Serowe

    Heute, 16 November, Freitag

    Zeit Temperatur Niederschläge Wind Luftdruck Luftfeuchtigkeit
    00:00 +25°C° 0 mm 3 m/S 668 mmHg 30%
    01:00 +24°C° 0 mm 3 m/S 667 mmHg 33%
    02:00 +24°C° 0 mm 3 m/S 667 mmHg 36%
    03:00 +22°C° 0 mm 3 m/S 667 mmHg 39%
    04:00 +21°C° 0 mm 3 m/S 667 mmHg 42%
    05:00 +21°C° 0 mm 3 m/S 667 mmHg 45%
    06:00 +22°C° 0 mm 4 m/S 668 mmHg 41%
    07:00 +25°C° 0 mm 5 m/S 669 mmHg 38%
    08:00 +27°C° 0 mm 6 m/S 669 mmHg 34%
    09:00 +29°C° 0 mm 6 m/S 670 mmHg 29%
    10:00 +32°C° 0 mm 6 m/S 670 mmHg 24%
    11:00 +34°C° 0 mm 6 m/S 671 mmHg 19%
    12:00 +35°C° 0 mm 6 m/S 670 mmHg 17%
    13:00 +36°C° 0 mm 6 m/S 670 mmHg 16%
    14:00 +38°C° 0 mm 6 m/S 670 mmHg 14%
    15:00 +36°C° 0 mm 6 m/S 669 mmHg 15%
    16:00 +36°C° 0 mm 6 m/S 669 mmHg 15%
    17:00 +35°C° 0 mm 6 m/S 668 mmHg 16%
    18:00 +34°C° 0 mm 5 m/S 668 mmHg 18%
    19:00 +32°C° 0 mm 4 m/S 668 mmHg 21%
    20:00 +29°C° 0 mm 4 m/S 668 mmHg 24%
    21:00 +29°C° 0 mm 4 m/S 668 mmHg 25%
    22:00 +28°C° 0 mm 4 m/S 669 mmHg 27%
    23:00 +27°C° 0 mm 4 m/S 669 mmHg 28%

    Morgen, 17 November, Samstag

    Zeit Temperatur Niederschläge Wind Luftdruck Luftfeuchtigkeit
    00:00 +26°C° 0 mm 4 m/S 669 mmHg 30%
    01:00 +26°C° 0 mm 3 m/S 668 mmHg 32%
    02:00 +25°C° 0 mm 3 m/S 668 mmHg 34%
    03:00 +24°C° 0 mm 3 m/S 668 mmHg 36%
    04:00 +22°C° 0 mm 3 m/S 667 mmHg 38%
    05:00 +22°C° 0 mm 3 m/S 667 mmHg 39%
    06:00 +25°C° 0 mm 4 m/S 668 mmHg 35%
    07:00 +26°C° 0 mm 4 m/S 669 mmHg 32%
    08:00 +28°C° 0 mm 5 m/S 669 mmHg 28%
    09:00 +30°C° 0 mm 5 m/S 669 mmHg 24%
    10:00 +33°C° 0 mm 5 m/S 670 mmHg 20%
    11:00 +35°C° 0 mm 5 m/S 670 mmHg 16%
    12:00 +36°C° 0 mm 4 m/S 669 mmHg 14%
    13:00 +37°C° 0 mm 4 m/S 669 mmHg 12%
    14:00 +38°C° 0 mm 4 m/S 668 mmHg 10%
    15:00 +38°C° 0 mm 4 m/S 667 mmHg 11%
    16:00 +38°C° 0 mm 4 m/S 667 mmHg 11%
    17:00 +39°C° 0 mm 5 m/S 667 mmHg 11%
    18:00 +36°C° 0 mm 4 m/S 667 mmHg 13%
    19:00 +34°C° 0 mm 4 m/S 667 mmHg 15%
    20:00 +31°C° 0 mm 3 m/S 667 mmHg 17%
    21:00 +30°C° 0 mm 3 m/S 667 mmHg 19%
    22:00 +29°C° 0 mm 3 m/S 667 mmHg 20%
    23:00 +28°C° 0 mm 2 m/S 667 mmHg 21%

    übermorgen, 18 November, Sonntag

    Zeit Temperatur Niederschläge Wind Luftdruck Luftfeuchtigkeit
    00:00 +28°C° 0 mm 2 m/S 667 mmHg 21%
    01:00 +27°C° 0 mm 2 m/S 667 mmHg 22%
    02:00 +26°C° 0 mm 3 m/S 666 mmHg 23%
    03:00 +26°C° 0 mm 3 m/S 666 mmHg 25%
    04:00 +25°C° 0 mm 4 m/S 666 mmHg 28%
    05:00 +25°C° 0 mm 4 m/S 666 mmHg 30%
    06:00 +27°C° 0 mm 5 m/S 667 mmHg 29%
    07:00 +28°C° 0 mm 6 m/S 668 mmHg 28%
    08:00 +31°C° 0 mm 8 m/S 668 mmHg 27%
    09:00 +33°C° 0 mm 7 m/S 669 mmHg 23%
    10:00 +35°C° 0 mm 6 m/S 669 mmHg 19%
    11:00 +38°C° 0 mm 6 m/S 669 mmHg 16%
    12:00 +39°C° 0 mm 5 m/S 668 mmHg 14%
    13:00 +40°C° 0 mm 5 m/S 668 mmHg 13%
    14:00 +41°C° 0 mm 4 m/S 667 mmHg 12%
    15:00 +40°C° 0 mm 5 m/S 666 mmHg 12%
    16:00 +40°C° 0 mm 5 m/S 666 mmHg 13%
    17:00 +39°C° 0 mm 5 m/S 666 mmHg 13%
    18:00 +36°C° 0 mm 5 m/S 666 mmHg 16%
    19:00 +35°C° 0 mm 5 m/S 666 mmHg 19%
    20:00 +33°C° 0 mm 5 m/S 666 mmHg 22%
    21:00 +32°C° 0 mm 5 m/S 666 mmHg 25%
    22:00 +30°C° 0 mm 6 m/S 667 mmHg 29%
    23:00 +29°C° 0 mm 6 m/S 667 mmHg 32%

    19 November, Montag

    Zeit Temperatur Niederschläge Wind Luftdruck Luftfeuchtigkeit
    00:00 +28°C° 0 mm 7 m/S 667 mmHg 37%
    01:00 +27°C° 0 mm 8 m/S 667 mmHg 42%
    02:00 +26°C° 0 mm 9 m/S 666 mmHg 47%
    03:00 +24°C° 0 mm 9 m/S 667 mmHg 53%
    04:00 +23°C° 0 mm 9 m/S 667 mmHg 59%
    05:00 +22°C° 0 mm 9 m/S 667 mmHg 65%
    06:00 +22°C° 0 mm 9 m/S 667 mmHg 65%
    07:00 +23°C° 0 mm 9 m/S 668 mmHg 65%
    08:00 +23°C° 0 mm 9 m/S 669 mmHg 64%
    09:00 +26°C° 0 mm 8 m/S 669 mmHg 58%
    10:00 +28°C° 0 mm 8 m/S 669 mmHg 51%
    11:00 +29°C° 0 mm 8 m/S 669 mmHg 44%
    12:00 +32°C° 0 mm 7 m/S 668 mmHg 40%
    13:00 +33°C° 0 mm 7 m/S 668 mmHg 35%
    14:00 +35°C° 0 mm 6 m/S 667 mmHg 31%
    15:00 +35°C° 0 mm 6 m/S 667 mmHg 30%
    16:00 +35°C° 0 mm 6 m/S 666 mmHg 29%
    17:00 +35°C° 0 mm 5 m/S 666 mmHg 28%
    18:00 +33°C° 0 mm 5 m/S 666 mmHg 31%
    19:00 +32°C° 0 mm 5 m/S 666 mmHg 33%
    20:00 +29°C° 0 mm 4 m/S 666 mmHg 36%
    21:00 +29°C° 0 mm 5 m/S 666 mmHg 40%
    22:00 +28°C° 0 mm 6 m/S 667 mmHg 44%
    23:00 +27°C° 0 mm 6 m/S 667 mmHg 48%

    20 November, Dienstag

    Zeit Temperatur Niederschläge Wind Luftdruck Luftfeuchtigkeit
    00:00 +26°C° 0 mm 7 m/S 666 mmHg 52%
    01:00 +24°C° 0 mm 7 m/S 665 mmHg 56%
    02:00 +23°C° 0 mm 7 m/S 665 mmHg 60%
    03:00 +23°C° 0 mm 7 m/S 665 mmHg 63%
    04:00 +22°C° 0 mm 7 m/S 665 mmHg 66%
    05:00 +22°C° 0 mm 7 m/S 665 mmHg 68%
    06:00 +23°C° 0 mm 7 m/S 666 mmHg 63%
    07:00 +24°C° 0 mm 6 m/S 667 mmHg 57%
    08:00 +26°C° 0 mm 5 m/S 667 mmHg 52%
    09:00 +29°C° 0.1 mm 5 m/S 668 mmHg 46%
    10:00 +32°C° 0.1 mm 5 m/S 668 mmHg 40%
    11:00 +34°C° 0.1 mm 4 m/S 668 mmHg 33%
    12:00 +35°C° 0.1 mm 4 m/S 667 mmHg 30%
    13:00 +36°C° 0.1 mm 3 m/S 667 mmHg 26%
    14:00 +38°C° 0.1 mm 3 m/S 666 mmHg 22%
    15:00 +36°C° 0.6 mm 3 m/S 666 mmHg 28%
    16:00 +34°C° 0.6 mm 4 m/S 665 mmHg 34%
    17:00 +32°C° 0.6 mm 5 m/S 664 mmHg 39%
    18:00 +29°C° 0.1 mm 5 m/S 664 mmHg 45%
    19:00 +28°C° 0.1 mm 5 m/S 664 mmHg 51%
    20:00 +26°C° 0.1 mm 5 m/S 665 mmHg 56%
    21:00 +26°C° 0.1 mm 5 m/S 665 mmHg 55%
    22:00 +26°C° 0.1 mm 6 m/S 665 mmHg 54%
    23:00 +24°C° 0.1 mm 6 m/S 665 mmHg 54%

    21 November, Mittwoch

    Zeit Temperatur Niederschläge Wind Luftdruck Luftfeuchtigkeit
    00:00 +26°C° 0.1 mm 5 m/S 664 mmHg 52%
    01:00 +26°C° 0.1 mm 4 m/S 664 mmHg 51%
    02:00 +26°C° 0.1 mm 3 m/S 664 mmHg 49%
    03:00 +25°C° 0.7 mm 3 m/S 664 mmHg 53%
    04:00 +25°C° 0.7 mm 3 m/S 664 mmHg 57%
    05:00 +24°C° 0.7 mm 3 m/S 664 mmHg 61%
    06:00 +25°C° 0.1 mm 3 m/S 664 mmHg 56%
    07:00 +27°C° 0.1 mm 3 m/S 665 mmHg 51%
    08:00 +28°C° 0.1 mm 3 m/S 666 mmHg 46%
    09:00 +30°C° 0 mm 4 m/S 666 mmHg 42%
    10:00 +32°C° 0 mm 4 m/S 666 mmHg 38%
    11:00 +34°C° 0 mm 5 m/S 666 mmHg 34%
    12:00 +34°C° 0.1 mm 5 m/S 666 mmHg 32%
    13:00 +35°C° 0.1 mm 4 m/S 665 mmHg 30%
    14:00 +36°C° 0.1 mm 4 m/S 665 mmHg 27%
    15:00 +36°C° 0.1 mm 4 m/S 665 mmHg 27%
    16:00 +36°C° 0.1 mm 4 m/S 664 mmHg 26%
    17:00 +36°C° 0.1 mm 4 m/S 664 mmHg 25%
    18:00 +35°C° 0.2 mm 4 m/S 664 mmHg 29%
    19:00 +33°C° 0.2 mm 4 m/S 664 mmHg 33%
    20:00 +30°C° 0.2 mm 4 m/S 665 mmHg 37%
    21:00 +29°C° 0.8 mm 4 m/S 665 mmHg 42%
    22:00 +28°C° 0.8 mm 4 m/S 665 mmHg 47%
    23:00 +27°C° 0.8 mm 4 m/S 666 mmHg 52%
    Mehr zeigen